Regional Weather Roundup
Issued by NWS

Home | Current Version | Previous Version | Text Only | Print | Product List | Glossary On
Versions: 1 2 3 4 5 6 7 8 9 10 11 12 13 14 15 16 17 18 19 20 21 22 23 24 25 26 27 28 29 30 31 32 33 34 35 36 37 38 39 40 41 42 43 44 45 46 47 48 49 50
315
ASUS43 KMKX 242221
RWRWI

WISCONSIN REGIONAL WEATHER ROUNDUP
NATIONAL WEATHER SERVICE MILWAUKEE/SULLIVAN WI
500 PM CDT THU MAY 24 2018

NOTE: "FAIR" INDICATES FEW OR NO CLOUDS BELOW 12,000 FEET WITH NO
SIGNIFICANT WEATHER AND/OR OBSTRUCTIONS TO VISIBILITY.

WIZ001-002-006>008-014>016-023>028-242300-
NORTHWEST WISCONSIN

CITY           SKY/WX    TMP DP  RH WIND       PRES   REMARKS
SUPERIOR ARPT  LGT RAIN  53  52  99 NE3       29.91F
ASHLAND        TSTM      70  66  87 W12G29    29.94S FOG
HAYWARD        FAIR      75  70  84 VRB3      29.92F
SIREN          FAIR      90  55  30 SW14G22   29.88F HX  88
CUMBERLAND     FAIR      86  55  35 S18G24    29.92F HX  84
RICE LAKE      FAIR      88  58  35 S17       29.94S HX  87
CHETEK         PTSUNNY   86  65  49 S12G18    29.93F HX  88
LADYSMITH      FAIR      86  63  45 S17G23    29.97S HX  86
EAU CLAIRE     PTSUNNY   87  64  46 S16G24    29.93F HX  88
MENOMONIE      FAIR      90  59  35 S16       29.93S HX  89
NEW RICHMOND   FAIR      88  53  30 S20G29    29.90F HX  86
OSCEOLA        FAIR      89  56  32 S16G25    29.92F HX  87
$$

WIZ003>005-009-010-017-018-242300-
NORTH CENTRAL WISCONSIN

CITY           SKY/WX    TMP DP  RH WIND       PRES   REMARKS
MANITOWISH WTR FAIR      82  65  57 S12G20    29.97F HX  83
ARBOR VITAE    PTSUNNY   83  65  55 S14       29.98F HX  85
WOODRUFF       PTSUNNY   83  65  55 S14       29.98F HX  85
RHINELANDER    FAIR      85  64  49 SW13G20   30.01F HX  86
EAGLE RIVER    FAIR      81  60  47 S6        29.99F HX  82
LAND O LAKES   FAIR      82  62  50 S7        30.00F HX  83
PHILLIPS       RAIN      80  67  63 S12       29.96F HX  82
TOMAHAWK       FAIR      81  64  55 CALM      30.00F HX  83
MEDFORD        FAIR      85  61  44 S16G25    29.98F HX  85
MERRILL        PTSUNNY   84  63  48 SW13G18   29.99F HX  85
$$

WIZ029-030-035-036-043>047-242300-
CENTRAL WISCONSIN

CITY           SKY/WX    TMP DP  RH WIND       PRES   REMARKS
WAUSAU         FAIR      85  60  42 S16       29.98F HX  85
MOSINEE        PTSUNNY   84  63  48 S9G20     30.01F HX  85
MARSHFIELD     FAIR      86  62  44 S14G24    29.98F HX  86
STEVENS POINT  FAIR      84  60  44 S13G21    30.01F HX  84
WAUPACA        FAIR      88  59  36 S13       30.01F HX  87
WAUTOMA        FAIR      86  61  42 S10       30.01F HX  86
WISC RAPIDS    FAIR      87  60  40 S16       30.01F HX  87
CAMP DOUGLAS   PTSUNNY   86  63  45 SW6G16    30.00F HX  87
$$

WIZ011>013-019>022-031-037>040-048>050-242300-
NORTHEAST WISCONSIN

CITY           SKY/WX    TMP DP  RH WIND       PRES   REMARKS
ANTIGO         FAIR      80  61  52 S9        30.02F HX  81
SHAWANO        FAIR      86  59  40 S9        29.99F HX  85
OCONTO         FAIR      82  60  47 S12       30.00F HX  82
STURGEON BAY   FAIR      76  55  48 S18       30.03F
GREEN BAY      FAIR      83  61  47 S9        30.02F HX  83
MANITOWOC      FAIR      73  54  51 S17       30.06F
APPLETON       PTSUNNY   82  54  36 S13       30.03F HX  81
CLINTONVILLE   FAIR      86  58  37 S13G20    30.00F HX  85
OSHKOSH        FAIR      84  62  47 S14       30.03F HX  85
$$

WIZ032>034-041-042-053>061-242300-
SOUTHWEST WISCONSIN

CITY           SKY/WX    TMP DP  RH WIND       PRES   REMARKS
LA CROSSE      FAIR      88  65  46 S20G25    29.95F HX  90
SPARTA         FAIR      84  62  47 S10G18    29.99F HX  85
VIROQUA        FAIR      85  63  47 S12G17    30.02F HX  86
BOSCOBEL       FAIR      88  65  46 VRB6      30.01F HX  90
PRAIRIE DU CHI FAIR      87  59  38 S12       29.99F HX  86
PLATTEVILLE    FAIR      85  65  51 SW10G16   30.04F HX  86
$$

WIZ056-057-062-063-064-067-068-242300-
SOUTH CENTRAL WISCONSIN

CITY           SKY/WX    TMP DP  RH WIND       PRES   REMARKS
REEDSBURG      FAIR      85  62  45 S10       30.02F HX  85
BARABOO/DELLS  FAIR      85  54  33 S9        30.03F HX  84
LONE ROCK      FAIR      86  65  49 S6        30.01F HX  88
MINERAL POINT  FAIR      86  63  45 S9        30.05F HX  87
MADISON        FAIR      85  58  39 S10       30.03F HX  84
MIDDLETON      FAIR      86  58  38 S12G17    30.04F HX  85
WATERTOWN      FAIR      85  61  44 SW9       30.04F HX  85
MONROE         FAIR      86  55  35 S14       30.05F HX  84
JANESVILLE     MOSUNNY   88  57  35 SW5       30.05F HX  86
$$

WIZ051-052-058>065-066-070>072-242300-
SOUTHEAST WISCONSIN

CITY           SKY/WX    TMP DP  RH WIND       PRES   REMARKS
MILWAUKEE      PTSUNNY   79  58  48 SE12      30.07F HX  80
WAUKESHA       SUNNY     82  55  39 S7        30.08F HX  82
MILWAUKEE/TIMM SUNNY     84  52  32 SE10      30.06F HX  82
RACINE         FAIR      76  53  44 S14       30.09F
BURLINGTON     FAIR      85  59  40 S7        30.07F HX  84
KENOSHA        FAIR      81  56  42 SE10      30.08F HX  81
FOND DU LAC    FAIR      84  59  42 SW10      30.04F HX  84
SHEBOYGAN      FAIR      77  57  50 S9        30.07F
WEST BEND      FAIR      81  57  44 SE9       30.06F HX  81
JUNEAU         FAIR      83  59  44 S12G17    30.06F HX  83
$$

LSZ147-162-242300-
LAKE SUPERIOR

STATION/POSITION TIME  TEMP    WIND        PRES    WAVE
                       AIR SEA DIR/SP/G            HT/PER
                 (UTC) (F)     (DEG/KT/KT) (MB)    (FT/S)
W MID LAKE BUOY  2150   48 36   80/  4/  4 1013.8F   0
DEVILS ISLAND    2200          100/  6/  7 1012.8F
SAXON HARBOR     2140   64     350/  1/  3 1012.9F
$$

LMZ867-665-643>646-242300-
LAKE MICHIGAN

STATION/POSITION TIME  TEMP    WIND        PRES    WAVE
                       AIR SEA DIR/SP/G            HT/PER
                 (UTC) (F)     (DEG/KT/KT) (MB)    (FT/S)
N MID LAKE BUOY  2200   43 37  190/ 10/ 10 1017.2
NORTHPORT PIER   2140   65     160/  5/  7 1016.9F
KEWAUNEE LAKESHO 2154   52     170/ 12/ 14 1017.3F
SHEBOYGAN LAKESH 2200   59     170/ 20/ 21 1017.8F
PORT WASHINGTON  2130   62     140/  2/  4 1019.6F
ATWATER BUOY     2137   57 51  200/ 10/ 12 1018.4F   2/17
MILWAUKEE LAKESH 2200   58     140/ 15/ 15   N/A
S MID LAKE BUOY  2150   61 41  150/  8/ 10 1019.4F   0
KENOSHA   LAKESH 2200   63                 1018.3
$$

TC  - TEMPERATURE IN CELSIUS
VSB - VISIBILITY IN STATUTE MILES
WCI - WIND CHILL INDEX
HX  - HEAT INDEX





USA.gov is the U.S. government's official web portal to all federal, state and local government web resources and services.